1514088000.82,13837,8.5,72966.3,-4.71,-5.47,-5.47,0,*5C
1514088002.03,13838,8.5,72982.5,-4.69,-5.43,-5.47,0,*5E
1514088003.24,13839,8.5,72986.3,-4.69,-5.47,-5.43,0,*5F
1514088004.46,13840,8.5,73000.3,-4.69,-5.35,-5.47,0,*50
1514088005.67,13841,8.5,73012.3,-4.69,-5.43,-5.47,0,*50
1514088006.88,13842,8.5,73004.5,-4.69,-5.43,-5.35,0,*56
1514088008.07,13843,8.5,73004.0,-4.71,-5.47,-5.39,0,*56
1514088009.26,13844,8.5,72962.5,-4.71,-5.47,-5.47,0,*58
1514088010.48,13845,8.5,72966.3,-4.69,-5.47,-5.43,0,*54
1514088011.68,13846,8.5,72944.8,-4.71,-5.47,-5.51,0,*5D
1514088012.89,13847,8.5,72934.0,-4.69,-5.43,-5.43,0,*52
1514088014.1,13848,8.5,72938.3,-4.69,-5.47,-5.35,0,*58
1514088015.32,13849,8.5,72936.8,-4.69,-5.35,-5.43,0,*5D
1514088016.53,13850,8.5,72940.8,-4.69,-5.43,-5.47,0,*50
1514088017.74,13851,8.5,72930.8,-4.69,-5.43,-5.35,0,*54
1514088018.95,13852,8.5,72926.3,-4.69,-5.43,-5.43,0,*56
1514088020.14,13853,8.5,72930.5,-4.71,-5.47,-5.47,0,*5E
1514088021.35,13854,8.5,72940.3,-4.69,-5.43,-5.43,0,*50
1514088022.54,13855,8.5,72934.5,-4.71,-5.47,-5.39,0,*51
1514088023.74,13856,8.5,72930.8,-4.71,-5.47,-5.39,0,*52
1514088024.95,13857,8.5,72956.5,-4.69,-5.43,-5.35,0,*52
1514088026.14,13858,8.5,72970.0,-4.71,-5.51,-5.47,0,*52
1514088027.33,13859,8.5,72974.3,-4.71,-5.47,-5.47,0,*54
1514088028.52,13860,8.5,72980.0,-4.71,-5.51,-5.47,0,*59
1514088029.72,13861,8.5,72992.8,-4.71,-5.47,-5.51,0,*58
1514088030.91,13862,8.5,73010.5,-4.71,-5.47,-5.47,0,*5C
1514088032.12,13863,8.5,73010.0,-4.69,-5.43,-5.43,0,*54
1514088033.31,13864,8.5,73018.8,-4.71,-5.47,-5.47,0,*5A
1514088034.52,13865,8.5,73026.3,-4.69,-5.43,-5.43,0,*52
1514088035.74,13866,8.5,73028.8,-4.69,-5.47,-5.43,0,*55
1514088036.95,13867,8.5,73038.8,-4.69,-5.43,-5.43,0,*50
1514088038.16,13868,8.5,73042.0,-4.69,-5.43,-5.43,0,*5F
1514088039.37,13869,8.5,73048.3,-4.69,-5.35,-5.43,0,*5F
1514088040.56,13870,8.5,73050.5,-4.71,-5.47,-5.47,0,*5F
1514088041.77,13871,8.5,73066.8,-4.69,-5.43,-5.43,0,*57
1514088042.97,13872,8.5,73060.5,-4.71,-5.47,-5.39,0,*54
1514088044.16,13873,8.5,73042.0,-4.71,-5.47,-5.39,0,*55
1514088045.35,13874,8.5,73030.8,-4.71,-5.51,-5.51,0,*5B
1514088046.54,13875,8.5,73020.3,-4.71,-5.47,-5.47,0,*5A
1514088047.74,13876,8.5,73020.8,-4.71,-5.47,-5.51,0,*5E
1514088048.93,13877,8.5,73006.8,-4.71,-5.47,-5.47,0,*58
1514088050.12,13878,8.5,73002.5,-4.71,-5.47,-5.47,0,*57
1514088051.33,13879,8.5,73056.5,-4.69,-5.43,-5.35,0,*5E
1514088052.54,13880,8.5,73080.8,-4.69,-5.43,-5.35,0,*58
1514088053.73,13881,8.5,73080.5,-4.71,-5.43,-5.43,0,*51
1514088054.92,13882,8.5,73058.3,-4.71,-5.51,-5.47,0,*55
1514088056.1,13883,8.5,73062.0,-4.71,-5.43,-5.47,0,*57
1514088057.31,13884,8.5,73058.5,-4.69,-5.43,-5.35,0,*5C
1514088058.5,13885,8.5,73114.0,-4.71,-5.47,-5.39,0,*5C
1514088059.71,13886,8.5,73110.5,-4.69,-5.43,-5.43,0,*5F
1514088060.91,13887,8.5,73110.8,-4.71,-5.47,-5.47,0,*57
1514088062.1,13888,8.5,73122.5,-4.71,-5.51,-5.47,0,*5F
1514088063.29,13889,8.5,73112.0,-4.71,-5.47,-5.47,0,*59
1514088064.48,13890,8.5,73124.3,-4.71,-5.47,-5.39,0,*58
1514088065.69,13891,8.5,73144.0,-4.69,-5.43,-5.43,0,*59
1514088066.9,13892,8.5,73136.3,-4.69,-5.43,-5.43,0,*5A
1514088068.09,13893,8.5,73094.3,-4.71,-5.47,-5.47,0,*52
1514088069.28,13894,8.5,73082.3,-4.71,-5.47,-5.47,0,*55
1514088070.47,13895,8.5,73088.5,-4.71,-5.47,-5.47,0,*54
1514088071.66,13896,8.5,73094.3,-4.71,-5.47,-5.47,0,*57
1514088072.87,13897,8.5,73054.5,-4.69,-5.43,-5.43,0,*5F
1514088074.07,13898,8.5,73054.3,-4.71,-5.47,-5.39,0,*50
1514088075.26,13899,8.5,73054.3,-4.71,-5.47,-5.39,0,*51
1514088076.45,13900,8.5,73046.3,-4.71,-5.47,-5.51,0,*5E
1514088077.66,13901,8.5,73052.3,-4.69,-5.43,-5.43,0,*51
1514088078.85,13902,8.5,73058.5,-4.71,-5.47,-5.39,0,*52
1514088080.04,13903,8.5,73042.8,-4.71,-5.51,-5.47,0,*5D
1514088081.24,13904,8.5,73046.8,-4.71,-5.47,-5.39,0,*54
1514088082.43,13905,8.5,73048.5,-4.71,-5.47,-5.39,0,*55
1514088083.64,13906,8.5,73050.3,-4.69,-5.43,-5.43,0,*56
1514088084.83,13907,8.5,73064.8,-4.71,-5.51,-5.47,0,*59
1514088086.05,13908,8.5,73050.8,-4.69,-5.47,-5.47,0,*58
1514088087.24,13909,8.5,73006.8,-4.71,-5.47,-5.47,0,*50
1514088088.43,13910,8.5,72988.5,-4.71,-5.39,-5.39,0,*58
1514088089.62,13911,8.5,72954.5,-4.71,-5.51,-5.47,0,*5E
1514088090.81,13912,8.5,72954.8,-4.71,-5.47,-5.47,0,*5A
1514088092.0,13913,8.5,72968.0,-4.71,-5.51,-5.51,0,*5B
1514088093.19,13914,8.5,72984.0,-4.71,-5.47,-5.47,0,*5C
1514088094.39,13915,8.5,72968.5,-4.71,-5.47,-5.47,0,*5D
1514088095.58,13916,8.5,72948.0,-4.71,-5.47,-5.47,0,*5E
1514088096.77,13917,8.5,72938.3,-4.71,-5.47,-5.47,0,*5F
1514088097.98,13918,8.5,72928.8,-4.69,-5.43,-5.43,0,*59
1514088099.17,13919,8.5,72918.3,-4.71,-5.47,-5.39,0,*58
1514088100.36,13920,8.5,72926.5,-4.71,-5.47,-5.47,0,*5B
1514088101.55,13921,8.5,72950.8,-4.71,-5.47,-5.47,0,*5A
1514088102.74,13922,8.5,72998.0,-4.71,-5.47,-5.47,0,*59
1514088103.93,13923,8.5,73012.5,-4.71,-5.47,-5.39,0,*51
1514088105.13,13924,8.5,73018.5,-4.71,-5.47,-5.51,0,*58
1514088106.32,13925,8.5,73034.5,-4.71,-5.47,-5.47,0,*5E
1514088107.51,13926,8.5,73042.0,-4.71,-5.47,-5.47,0,*5D
1514088108.72,13927,8.5,73052.8,-4.69,-5.43,-5.35,0,*54
1514088109.91,13928,8.5,73072.5,-4.71,-5.47,-5.39,0,*5A
1514088111.1,13929,8.5,73064.8,-4.71,-5.47,-5.39,0,*5B
1514088112.29,13930,8.5,73056.8,-4.71,-5.47,-5.39,0,*53
1514088113.5,13931,8.5,73058.3,-4.69,-5.43,-5.43,0,*52
1514088114.69,13932,8.5,73068.0,-4.71,-5.47,-5.47,0,*58
1514088115.89,13933,8.5,73052.3,-4.71,-5.51,-5.47,0,*5E
1514088117.08,13934,8.5,73068.0,-4.71,-5.47,-5.51,0,*59
1514088118.27,13935,8.5,73060.3,-4.71,-5.47,-5.47,0,*5F
1514088119.49,13936,8.5,73054.8,-4.69,-5.47,-5.43,0,*51
1514088120.68,13937,8.5,73040.8,-4.71,-5.39,-5.47,0,*54
1514088121.87,13938,8.5,73052.0,-4.71,-5.47,-5.51,0,*55
1514088123.07,13939,8.5,73068.3,-4.71,-5.51,-5.51,0,*53
1514088124.26,13940,8.5,73098.3,-4.71,-5.51,-5.39,0,*53
1514088125.45,13941,8.5,73094.0,-4.71,-5.47,-5.47,0,*5C
1514088126.64,13942,8.5,73110.5,-4.71,-5.51,-5.47,0,*58
1514088127.83,13943,8.5,73104.5,-4.71,-5.47,-5.47,0,*5E
1514088129.02,13944,8.5,73092.3,-4.71,-5.47,-5.47,0,*59
1514088130.21,13945,8.5,73086.0,-4.71,-5.47,-5.39,0,*51
1514088131.4,13946,8.5,73068.3,-4.71,-5.47,-5.47,0,*5B
1514088132.59,13947,8.5,73042.0,-4.71,-5.47,-5.47,0,*5A
1514088133.78,13948,8.5,73002.8,-4.71,-5.47,-5.39,0,*5C
1514088134.97,13949,8.5,73008.8,-4.71,-5.47,-5.47,0,*54
1514088136.17,13950,8.5,73018.5,-4.71,-5.47,-5.39,0,*55
1514088137.36,13951,8.5,73004.3,-4.71,-5.47,-5.47,0,*5D
1514088138.57,13952,8.5,73012.5,-4.69,-5.47,-5.47,0,*57
1514088139.77,13953,8.5,73024.3,-4.71,-5.51,-5.47,0,*58
1514088140.96,13954,8.5,73030.0,-4.71,-5.51,-5.47,0,*5F
1514088142.18,13955,8.5,73040.3,-4.73,-5.47,-5.47,0,*5B
1514088143.37,13956,8.5,73042.3,-4.71,-5.51,-5.47,0,*5D
1514088144.56,13957,8.5,73036.8,-4.71,-5.47,-5.47,0,*5B
1514088145.75,13958,8.5,72992.0,-4.71,-5.51,-5.47,0,*53
1514088146.95,13959,8.5,72974.3,-4.71,-5.51,-5.51,0,*55
1514088148.14,13960,8.5,72964.3,-4.71,-5.47,-5.47,0,*5F
1514088149.33,13961,8.5,72966.5,-4.71,-5.51,-5.47,0,*59
1514088150.55,13962,8.5,72964.8,-4.73,-5.47,-5.47,0,*5F
1514088151.74,13963,8.5,72976.8,-4.71,-5.47,-5.47,0,*5C
1514088152.93,13964,8.5,73000.0,-4.71,-5.47,-5.39,0,*52
1514088154.12,13965,8.5,73010.8,-4.71,-5.47,-5.47,0,*5A
1514088155.34,13966,8.5,73016.8,-4.73,-5.47,-5.47,0,*5B
1514088156.56,13967,8.5,73018.5,-4.73,-5.35,-5.47,0,*5F
1514088157.78,13968,8.5,73024.8,-4.73,-5.47,-5.47,0,*55
1514088158.97,13969,8.5,73032.8,-4.71,-5.47,-5.47,0,*56
1514088160.17,13970,8.5,73038.0,-4.71,-5.51,-5.51,0,*5E
1514088161.36,13971,8.5,73042.8,-4.71,-5.47,-5.47,0,*5F
1514088162.58,13972,8.5,73044.8,-4.73,-5.51,-5.47,0,*59
1514088163.8,13973,8.5,73046.3,-4.73,-5.47,-5.47,0,*5F
1514088165.02,13974,8.5,73050.3,-4.73,-5.47,-5.47,0,*58
1514088166.21,13975,8.5,73062.0,-4.71,-5.47,-5.47,0,*5B
1514088167.41,13976,8.5,73052.0,-4.71,-5.47,-5.47,0,*58
1514088168.6,13977,8.5,73066.8,-4.71,-5.47,-5.51,0,*5E
1514088169.79,13978,8.5,73062.5,-4.71,-5.51,-5.47,0,*51
1514088171.01,13979,8.5,73068.0,-4.73,-5.47,-5.51,0,*52
1514088172.24,13980,8.5,73072.8,-4.73,-5.47,-5.47,0,*53
1514088173.46,13981,8.5,73076.0,-4.73,-5.51,-5.47,0,*55
1514088174.68,13982,8.5,73062.3,-4.73,-5.39,-5.47,0,*58
1514088175.9,13983,8.5,73050.0,-4.73,-5.47,-5.47,0,*50
1514088177.13,13984,8.5,73034.5,-4.77,-5.55,-5.51,0,*57
1514088178.35,13985,8.5,73040.0,-4.73,-5.39,-5.47,0,*5F
1514088179.57,13986,8.5,73068.5,-4.73,-5.51,-5.47,0,*52
1514088180.79,13987,8.5,73092.8,-4.73,-5.47,-5.47,0,*54
1514088182.02,13988,8.5,73072.0,-4.77,-5.55,-5.51,0,*5B
1514088183.24,13989,8.5,73064.5,-4.73,-5.47,-5.47,0,*5A
1514088184.43,13990,8.5,73060.0,-4.71,-5.47,-5.47,0,*50
1514088185.62,13991,8.5,73076.3,-4.71,-5.47,-5.39,0,*58
1514088186.84,13992,8.5,73096.3,-4.73,-5.47,-5.47,0,*50
1514088188.07,13993,8.5,73110.0,-4.73,-5.47,-5.47,0,*51
1514088189.29,13994,8.5,73104.3,-4.73,-5.47,-5.51,0,*51
1514088190.51,13995,8.5,73086.5,-4.73,-5.47,-5.47,0,*57
1514088191.73,13996,8.5,73056.3,-4.73,-5.51,-5.47,0,*53
1514088192.92,13997,8.5,72962.3,-4.71,-5.51,-5.47,0,*50
1514088194.14,13998,8.5,73006.3,-4.73,-5.47,-5.47,0,*5A
1514088195.37,13999,8.5,72974.0,-4.73,-5.47,-5.47,0,*5B
1514088196.59,14000,8.5,72942.3,-4.73,-5.47,-5.47,0,*55
1514088197.81,14001,8.5,72930.8,-4.77,-5.51,-5.39,0,*5E
1514088199.04,14002,8.5,72902.3,-4.77,-5.51,-5.51,0,*53
1514088200.26,14003,8.5,72866.0,-4.73,-5.47,-5.47,0,*56
1514088201.48,14004,8.5,72850.0,-4.73,-5.47,-5.47,0,*51
1514088202.7,14005,8.5,72876.0,-4.73,-5.47,-5.39,0,*59
1514088203.93,14006,8.5,72874.0,-4.73,-5.47,-5.51,0,*54
1514088205.15,14007,8.5,72848.8,-4.73,-5.47,-5.39,0,*5B
1514088206.37,14008,8.5,72828.3,-4.73,-5.47,-5.47,0,*5D
1514088207.59,14009,8.5,72826.3,-4.73,-5.47,-5.47,0,*5C
1514088208.81,14010,8.5,72846.0,-4.73,-5.47,-5.47,0,*54
1514088210.04,14011,8.5,72854.0,-4.77,-5.55,-5.51,0,*55
1514088211.26,14012,8.5,72840.0,-4.73,-5.47,-5.39,0,*5F
1514088212.48,14013,8.5,72810.5,-4.73,-5.39,-5.47,0,*5E
1514088213.7,14014,8.5,72816.0,-4.73,-5.47,-5.39,0,*59
1514088214.93,14015,8.5,72846.0,-4.73,-5.51,-5.55,0,*55
1514088216.15,14016,8.5,72852.5,-4.73,-5.47,-5.39,0,*5B
1514088217.38,14017,8.5,72894.0,-4.73,-5.47,-5.39,0,*5A
1514088218.6,14018,8.5,72922.8,-4.73,-5.47,-5.39,0,*55
1514088219.82,14019,8.5,72936.5,-4.73,-5.47,-5.47,0,*5D
1514088221.04,14020,8.5,72956.8,-4.73,-5.47,-5.47,0,*57
1514088222.26,14021,8.5,72976.3,-4.73,-5.47,-5.47,0,*56
1514088223.48,14022,8.5,72992.3,-4.73,-5.51,-5.47,0,*52
1514088224.71,14023,8.5,73012.0,-4.77,-5.51,-5.51,0,*50
1514088225.93,14024,8.5,73022.0,-4.73,-5.47,-5.47,0,*53
1514088227.15,14025,8.5,73024.0,-4.73,-5.47,-5.39,0,*5B
1514088228.37,14026,8.5,73030.8,-4.73,-5.47,-5.47,0,*51
1514088229.59,14027,8.5,73034.0,-4.73,-5.47,-5.47,0,*50
1514088230.81,14028,8.5,73036.3,-4.73,-5.47,-5.47,0,*5F
1514088232.04,14029,8.5,73028.3,-4.73,-5.51,-5.47,0,*59
1514088233.26,14030,8.5,73036.8,-4.77,-5.51,-5.51,0,*52
1514088234.48,14031,8.5,73040.0,-4.73,-5.39,-5.47,0,*5E
1514088235.7,14032,8.5,73040.8,-4.73,-5.51,-5.47,0,*53
1514088236.93,14033,8.5,73040.8,-4.73,-5.51,-5.47,0,*52
1514088238.15,14034,8.5,73040.0,-4.73,-5.47,-5.51,0,*55
1514088239.37,14035,8.5,73028.8,-4.73,-5.47,-5.51,0,*54
1514088240.6,14036,8.5,73038.0,-4.73,-5.51,-5.47,0,*57
1514088241.82,14037,8.5,73034.8,-4.73,-5.47,-5.47,0,*51
1514088243.04,14038,8.5,73034.8,-4.77,-5.43,-5.51,0,*59
1514088244.26,14039,8.5,73018.5,-4.73,-5.47,-5.47,0,*5F
1514088245.48,14040,8.5,73018.3,-4.73,-5.47,-5.51,0,*56
1514088246.7,14041,8.5,73014.0,-4.73,-5.47,-5.47,0,*50
1514088247.93,14042,8.5,73010.3,-4.73,-5.47,-5.39,0,*5A
1514088249.15,14043,8.5,73014.0,-4.73,-5.47,-5.47,0,*52
1514088250.37,14044,8.5,73024.3,-4.73,-5.47,-5.47,0,*55
1514088251.59,14045,8.5,73018.3,-4.73,-5.47,-5.47,0,*54
1514088252.81,14046,8.5,73012.0,-4.73,-5.47,-5.47,0,*57
1514088254.03,14047,8.5,73010.0,-4.73,-5.47,-5.51,0,*51
1514088255.27,14048,8.5,73004.5,-4.77,-5.55,-5.55,0,*5D
1514088256.49,14049,8.5,73012.3,-4.73,-5.47,-5.47,0,*58
1514088257.71,14050,8.5,73022.8,-4.73,-5.51,-5.51,0,*50
1514088258.94,14051,8.5,73030.8,-4.73,-5.47,-5.47,0,*51
1514088260.16,14052,8.5,73036.8,-4.73,-5.47,-5.39,0,*5B
1514088261.38,14053,8.5,73054.8,-4.73,-5.47,-5.51,0,*54
1514088262.61,14054,8.5,73054.8,-4.73,-5.47,-5.51,0,*53
1514088263.83,14055,8.5,73058.3,-4.73,-5.47,-5.47,0,*55
1514088265.06,14056,8.5,73066.3,-4.77,-5.51,-5.55,0,*56
1514088266.28,14057,8.5,73072.0,-4.73,-5.51,-5.47,0,*50
1514088267.51,14058,8.5,73096.0,-4.73,-5.47,-5.51,0,*5F
1514088268.73,14059,8.5,73116.5,-4.77,-5.51,-5.51,0,*5D
1514088269.95,14060,8.5,73124.5,-4.73,-5.47,-5.47,0,*53
1514088271.17,14061,8.5,73116.8,-4.73,-5.47,-5.47,0,*52
1514088272.4,14062,8.5,73096.5,-4.77,-5.51,-5.51,0,*55
1514088273.62,14063,8.5,73042.5,-4.73,-5.47,-5.47,0,*50
1514088274.85,14064,8.5,73042.8,-4.77,-5.51,-5.51,0,*53
1514088276.07,14065,8.5,73048.3,-4.73,-5.47,-5.47,0,*56
1514088277.3,14066,8.5,73026.3,-4.73,-5.47,-5.51,0,*52
1514088278.53,14067,8.5,73016.5,-4.77,-5.51,-5.51,0,*50
1514088279.75,14068,8.5,73008.3,-4.73,-5.47,-5.47,0,*5B
1514088280.97,14069,8.5,73018.0,-4.73,-5.47,-5.47,0,*5A
1514088282.19,14070,8.5,72940.5,-4.73,-5.47,-5.47,0,*52
1514088283.42,14071,8.5,72874.3,-4.77,-5.51,-5.51,0,*57
1514088284.64,14072,8.5,72852.8,-4.77,-5.51,-5.51,0,*54
1514088285.87,14073,8.5,72838.0,-4.77,-5.51,-5.51,0,*55
1514088287.09,14074,8.5,72826.8,-4.73,-5.51,-5.47,0,*51
1514088288.32,14075,8.5,72858.3,-4.77,-5.51,-5.51,0,*53
1514088289.54,14076,8.5,72902.3,-4.73,-5.51,-5.47,0,*53
1514088290.78,14077,8.5,72948.0,-4.77,-5.51,-5.55,0,*55
1514088292.01,14078,8.5,72936.3,-4.77,-5.55,-5.51,0,*5A
1514088293.23,14079,8.5,72930.3,-4.73,-5.39,-5.47,0,*52
1514088294.46,14080,8.5,72918.8,-4.77,-5.55,-5.51,0,*5D
1514088295.68,14081,8.5,72960.8,-4.73,-5.47,-5.47,0,*5C
1514088296.91,14082,8.5,72980.5,-4.77,-5.55,-5.51,0,*5F
1514088298.14,14083,8.5,73016.8,-4.77,-5.51,-5.51,0,*5A
1514088299.37,14084,8.5,73052.8,-4.77,-5.55,-5.43,0,*5A
1514088300.59,14085,8.5,73010.8,-4.73,-5.47,-5.47,0,*58
1514088301.81,14086,8.5,73012.8,-4.73,-5.47,-5.47,0,*5B
1514088303.03,14087,8.5,73012.3,-4.73,-5.47,-5.47,0,*5A
1514088304.26,14088,8.5,72988.8,-4.77,-5.55,-5.51,0,*55
1514088305.49,14089,8.5,73048.0,-4.77,-5.51,-5.55,0,*54
1514088306.71,14090,8.5,73032.5,-4.73,-5.47,-5.47,0,*5C
1514088307.93,14091,8.5,73040.3,-4.73,-5.47,-5.47,0,*5D
1514088309.15,14092,8.5,73054.3,-4.73,-5.47,-5.47,0,*5E
1514088310.38,14093,8.5,73048.5,-4.73,-5.51,-5.47,0,*58
1514088311.6,14094,8.5,73038.0,-4.73,-5.47,-5.47,0,*58
1514088312.82,14095,8.5,73026.5,-4.73,-5.51,-5.47,0,*5E
1514088314.04,14096,8.5,73048.5,-4.73,-5.47,-5.47,0,*5A
1514088315.26,14097,8.5,73024.5,-4.73,-5.39,-5.51,0,*55
1514088316.49,14098,8.5,73048.0,-4.77,-5.51,-5.55,0,*54
1514088317.72,14099,8.5,73070.0,-4.77,-5.51,-5.51,0,*51
1514088318.94,14100,8.5,73058.8,-4.73,-5.47,-5.47,0,*54
1514088320.16,14101,8.5,73042.5,-4.73,-5.51,-5.47,0,*52
1514088321.38,14102,8.5,73048.3,-4.73,-5.39,-5.47,0,*5F
1514088322.61,14103,8.5,73044.3,-4.77,-5.51,-5.51,0,*53
1514088323.83,14104,8.5,73024.3,-4.73,-5.51,-5.47,0,*57
1514088325.05,14105,8.5,73002.0,-4.73,-5.47,-5.47,0,*51
1514088326.28,14106,8.5,72986.3,-4.73,-5.47,-5.55,0,*51
1514088327.5,14107,8.5,72956.3,-4.73,-5.47,-5.47,0,*53
1514088328.73,14108,8.5,72986.3,-4.73,-5.47,-5.51,0,*5B
1514088329.95,14109,8.5,72988.5,-4.73,-5.47,-5.47,0,*5D
1514088331.18,14110,8.5,73070.3,-4.77,-5.55,-5.51,0,*55
1514088332.4,14111,8.5,73024.5,-4.73,-5.47,-5.47,0,*54
1514088333.63,14112,8.5,72968.0,-4.77,-5.51,-5.55,0,*57
1514088334.86,14113,8.5,73014.3,-4.77,-5.51,-5.51,0,*52
1514088336.09,14114,8.5,73008.8,-4.77,-5.55,-5.51,0,*51
1514088337.31,14115,8.5,73016.8,-4.73,-5.47,-5.39,0,*59
1514088338.54,14116,8.5,73006.3,-4.77,-5.55,-5.51,0,*53
1514088339.77,14117,8.5,73014.8,-4.77,-5.55,-5.51,0,*52
1514088341.0,14118,8.5,73006.0,-4.77,-5.51,-5.51,0,*59
1514088342.23,14119,8.5,72996.5,-4.77,-5.55,-5.51,0,*5C
1514088343.45,14120,8.5,73008.0,-4.73,-5.47,-5.47,0,*56
1514088344.68,14121,8.5,73016.8,-4.73,-5.51,-5.47,0,*50
1514088345.91,14122,8.5,72972.5,-4.77,-5.55,-5.51,0,*54
1514088347.14,14123,8.5,72946.3,-4.77,-5.51,-5.51,0,*51
1514088348.36,14124,8.5,72940.8,-4.77,-5.51,-5.51,0,*56
1514088349.59,14125,8.5,72928.8,-4.73,-5.47,-5.47,0,*53
1514088350.82,14126,8.5,72948.0,-4.77,-5.51,-5.55,0,*50
1514088352.04,14127,8.5,72998.3,-4.73,-5.47,-5.51,0,*56
1514088353.27,14128,8.5,73006.3,-4.77,-5.51,-5.51,0,*5A
1514088354.5,14129,8.5,72990.0,-4.77,-5.51,-5.55,0,*5F
1514088355.73,14130,8.5,72970.5,-4.77,-5.51,-5.51,0,*53
1514088356.96,14131,8.5,72966.5,-4.77,-5.51,-5.51,0,*52
1514088358.19,14132,8.5,72974.3,-4.77,-5.51,-5.55,0,*55
1514088359.41,14133,8.5,72986.0,-4.73,-5.47,-5.47,0,*54
1514088360.64,14134,8.5,72978.5,-4.77,-5.51,-5.51,0,*57
1514088361.87,14135,8.5,73000.8,-4.77,-5.55,-5.51,0,*52
1514088363.1,14136,8.5,73018.8,-4.77,-5.51,-5.51,0,*55
1514088364.32,14137,8.5,73018.8,-4.73,-5.47,-5.51,0,*57
1514088365.54,14138,8.5,73000.8,-4.77,-5.43,-5.51,0,*58
1514088366.77,14139,8.5,72968.5,-4.77,-5.51,-5.51,0,*5A
1514088368.0,14140,8.5,72986.3,-4.77,-5.51,-5.51,0,*54
1514088369.23,14141,8.5,72978.8,-4.77,-5.51,-5.51,0,*55
1514088370.45,14142,8.5,72966.0,-4.77,-5.51,-5.51,0,*56
1514088371.69,14143,8.5,72906.8,-4.77,-5.55,-5.51,0,*53
1514088372.91,14144,8.5,72860.3,-4.77,-5.51,-5.43,0,*53
1514088374.14,14145,8.5,72894.3,-4.77,-5.51,-5.51,0,*51
1514088375.37,14146,8.5,72916.5,-4.77,-5.51,-5.55,0,*56
1514088376.6,14147,8.5,72970.5,-4.77,-5.51,-5.51,0,*53
1514088377.83,14148,8.5,73010.3,-4.77,-5.51,-5.51,0,*5C
1514088379.06,14149,8.5,73006.5,-4.77,-5.51,-5.55,0,*59
1514088380.29,14150,8.5,72986.5,-4.77,-5.55,-5.51,0,*51
1514088381.52,14151,8.56,73022.3,-4.73,-5.47,-5.55,0,*53
1514088382.74,14152,8.5,73042.3,-4.73,-5.47,-5.47,0,*53
1514088383.97,14153,8.5,73054.5,-4.77,-5.51,-5.55,0,*52
1514088385.2,14154,8.5,73048.0,-4.77,-5.51,-5.55,0,*55
1514088386.43,14155,8.5,73038.8,-4.77,-5.51,-5.51,0,*50
1514088387.65,14156,8.5,73048.8,-4.79,-5.61,-5.55,0,*5A
1514088388.88,14157,8.5,73042.8,-4.77,-5.51,-5.55,0,*56
1514088390.14,14158,8.5,73040.0,-4.81,-5.55,-5.61,0,*53
1514088391.38,14159,8.5,73042.8,-4.79,-5.61,-5.61,0,*52
1514088392.58,14160,8.5,73056.0,-4.79,-5.47,-5.55,0,*5B
1514088393.81,14161,8.5,73058.0,-4.77,-5.51,-5.51,0,*57
1514088395.04,14162,8.5,73058.0,-4.77,-5.55,-5.51,0,*50
1514088396.28,14163,8.5,73050.5,-4.77,-5.51,-5.55,0,*51
1514088397.5,14164,8.5,73050.5,-4.73,-5.51,-5.47,0,*51
1514088398.73,14165,8.5,73088.8,-4.77,-5.55,-5.51,0,*57
1514088399.93,14166,8.5,73060.3,-4.79,-5.55,-5.55,0,*5E
1514088401.14,14167,8.5,73012.0,-4.79,-5.55,-5.55,0,*5F
1514088402.36,14168,8.5,73012.0,-4.79,-5.61,-5.47,0,*54
1514088403.58,14169,8.5,73022.8,-4.79,-5.55,-5.61,0,*56
1514088404.79,14170,8.5,73022.5,-4.79,-5.55,-5.55,0,*59
1514088406.03,14171,8.5,73034.0,-4.79,-5.61,-5.61,0,*58
1514088407.24,14172,8.5,73036.0,-4.79,-5.47,-5.55,0,*58
1514088408.44,14173,8.5,73030.8,-4.79,-5.55,-5.55,0,*5A
1514088409.65,14174,8.5,73002.0,-4.79,-5.55,-5.55,0,*5D
1514088410.87,14175,8.5,73000.8,-4.79,-5.61,-5.55,0,*5B
1514088412.07,14176,8.5,73060.5,-4.79,-5.55,-5.55,0,*5F
1514088413.27,14177,8.56,72966.8,-4.79,-5.55,-5.47,0,*5D
1514088414.48,14178,8.5,72904.3,-4.79,-5.55,-5.55,0,*51
1514088415.71,14179,8.5,72888.0,-4.79,-5.55,-5.61,0,*57
1514088416.91,14180,8.5,72858.5,-4.79,-5.55,-5.55,0,*56
1514088418.12,14181,8.5,72868.3,-4.79,-5.55,-5.55,0,*57
1514088419.31,14182,8.5,72866.8,-4.79,-5.55,-5.47,0,*57
1514088420.53,14183,8.5,72878.5,-4.79,-5.61,-5.47,0,*51
1514088421.73,14184,8.5,72888.0,-4.79,-5.55,-5.55,0,*52
1514088422.94,14185,8.5,72910.0,-4.79,-5.55,-5.55,0,*53
1514088424.15,14186,8.5,72918.5,-4.79,-5.55,-5.55,0,*50
1514088425.38,14187,8.5,72936.5,-4.77,-5.55,-5.51,0,*5B
1514088426.61,14188,8.5,72956.8,-4.77,-5.51,-5.51,0,*50
1514088427.84,14189,8.5,72984.8,-4.77,-5.51,-5.55,0,*55
1514088429.04,14190,8.5,72998.8,-4.79,-5.55,-5.55,0,*57
1514088430.26,14191,8.5,73014.3,-4.79,-5.61,-5.55,0,*51
1514088431.51,14192,8.5,73010.5,-4.79,-5.61,-5.61,0,*55
1514088432.74,14193,8.5,73014.0,-4.79,-5.55,-5.61,0,*53
1514088433.94,14194,8.5,73020.8,-4.79,-5.55,-5.55,0,*53
1514088435.17,14195,8.5,73018.0,-4.79,-5.55,-5.61,0,*55
1514088436.38,14196,8.5,73014.3,-4.79,-5.55,-5.55,0,*51
1514088437.58,14197,8.5,73002.8,-4.79,-5.55,-5.55,0,*50
1514088438.81,14198,8.5,73020.5,-4.79,-5.61,-5.55,0,*58
1514088440.03,14199,8.5,73010.3,-4.79,-5.55,-5.61,0,*59
1514088441.24,14200,8.5,73030.3,-4.79,-5.55,-5.55,0,*5D
1514088442.5,14201,8.5,73020.0,-4.81,-5.55,-5.61,0,*5C
1514088443.74,14202,8.5,73028.5,-4.81,-5.61,-5.47,0,*5C
1514088444.94,14203,8.5,73028.3,-4.79,-5.55,-5.55,0,*5E
1514088446.17,14204,8.5,73018.3,-4.79,-5.55,-5.61,0,*5E
1514088447.37,14205,8.5,73024.3,-4.79,-5.55,-5.47,0,*5B
1514088448.57,14206,8.5,73024.0,-4.79,-5.55,-5.55,0,*5B
1514088449.78,14207,8.5,73028.8,-4.79,-5.55,-5.55,0,*5A
1514088451.03,14208,8.5,73038.3,-4.79,-5.61,-5.61,0,*55
1514088452.25,14209,8.5,73036.5,-4.79,-5.61,-5.55,0,*53
1514088453.48,14210,8.5,73024.3,-4.79,-5.55,-5.61,0,*5B
1514088454.7,14211,8.5,73016.8,-4.79,-5.61,-5.55,0,*5A
1514088455.92,14212,8.5,73012.3,-4.79,-5.61,-5.55,0,*59
1514088457.13,14213,8.5,73002.0,-4.79,-5.55,-5.55,0,*5F
1514088458.33,14214,8.5,72996.5,-4.79,-5.55,-5.55,0,*58
1514088459.53,14215,8.5,73008.8,-4.79,-5.55,-5.51,0,*5D
1514088460.76,14216,8.5,72996.8,-4.79,-5.55,-5.61,0,*5D
1514088461.96,14217,8.5,72992.8,-4.79,-5.47,-5.55,0,*58
1514088463.21,14218,8.5,73004.0,-4.79,-5.61,-5.61,0,*54
1514088464.42,14219,8.5,73012.8,-4.79,-5.55,-5.55,0,*55
1514088465.64,14220,8.5,73016.5,-4.79,-5.61,-5.55,0,*58
1514088466.86,14221,8.5,73048.0,-4.79,-5.61,-5.55,0,*59
1514088468.09,14222,8.5,73034.3,-4.79,-5.55,-5.61,0,*5A
1514088469.32,14223,8.5,73028.0,-4.81,-5.55,-5.55,0,*5B
1514088470.58,14224,8.5,73034.8,-4.81,-5.55,-5.61,0,*5B
1514088471.81,14225,8.5,73028.0,-4.81,-5.47,-5.55,0,*5E
1514088473.03,14226,8.5,73044.8,-4.79,-5.61,-5.55,0,*5E
1514088474.28,14227,8.5,73068.3,-4.81,-5.61,-5.55,0,*58
1514088475.52,14228,8.5,73108.0,-4.79,-5.61,-5.61,0,*57
1514088476.76,14229,8.5,73100.5,-4.81,-5.55,-5.55,0,*51
1514088478.0,14230,8.5,73090.5,-4.79,-5.61,-5.61,0,*5E
1514088479.23,14231,8.5,73030.0,-4.77,-5.43,-5.55,0,*56
1514088480.45,14232,8.5,73022.5,-4.79,-5.61,-5.55,0,*5B
1514088481.65,14233,8.5,73008.3,-4.79,-5.55,-5.55,0,*5D
1514088482.88,14234,8.5,72986.8,-4.79,-5.61,-5.55,0,*5D
1514088484.13,14235,8.5,72982.0,-4.81,-5.61,-5.55,0,*5B
1514088485.33,14236,8.5,72942.8,-4.79,-5.55,-5.55,0,*58
1514088486.58,14237,8.5,72938.5,-4.81,-5.61,-5.55,0,*59
1514088487.81,14238,8.5,72946.3,-4.81,-5.55,-5.55,0,*51
1514088489.03,14239,8.5,72956.0,-4.79,-5.61,-5.55,0,*50
1514088490.26,14240,8.5,72982.5,-4.79,-5.61,-5.55,0,*5E
1514088491.48,14241,8.5,73020.3,-4.79,-5.61,-5.55,0,*5F
1514088492.73,14242,8.5,73042.3,-4.79,-5.61,-5.61,0,*5B
1514088493.96,14243,8.5,73056.0,-4.81,-5.55,-5.55,0,*5D
1514088495.18,14244,8.5,73072.3,-4.79,-5.61,-5.55,0,*5A
1514088496.39,14245,8.5,73098.0,-4.79,-5.55,-5.55,0,*5C
1514088497.61,14246,8.5,73130.3,-4.79,-5.61,-5.55,0,*58
1514088498.81,14247,8.5,73132.3,-4.79,-5.55,-5.47,0,*5D
1514088500.04,14248,8.5,73140.5,-4.81,-5.55,-5.55,0,*56
1514088501.24,14249,8.5,73138.5,-4.79,-5.55,-5.55,0,*50
1514088502.47,14250,8.5,73124.0,-4.79,-5.55,-5.61,0,*5F
1514088503.68,14251,8.5,73110.0,-4.79,-5.55,-5.55,0,*59
1514088504.91,14252,8.5,73108.8,-4.81,-5.55,-5.55,0,*5D
1514088506.13,14253,8.5,73106.8,-4.79,-5.61,-5.47,0,*5F
1514088507.35,14254,8.5,73086.8,-4.79,-5.61,-5.55,0,*5B
1514088508.58,14255,8.5,73058.0,-4.81,-5.55,-5.55,0,*5A
1514088509.78,14256,8.5,73046.8,-4.79,-5.47,-5.55,0,*5D
1514088511.0,14257,8.5,73114.5,-4.79,-5.61,-5.55,0,*58
1514088512.26,14258,8.5,73106.0,-4.81,-5.55,-5.61,0,*50
1514088513.51,14259,8.5,73088.5,-4.79,-5.61,-5.61,0,*51
1514088514.73,14260,8.5,73080.5,-4.79,-5.61,-5.55,0,*5C
1514088515.93,14261,8.56,73086.0,-4.79,-5.55,-5.55,0,*5A
1514088517.17,14262,8.5,73054.8,-4.81,-5.55,-5.55,0,*5E
1514088518.4,14263,8.5,73056.8,-4.81,-5.55,-5.55,0,*5F
1514088519.6,14264,8.5,73064.0,-4.79,-5.55,-5.55,0,*5F
1514088520.85,14265,8.5,73038.3,-4.79,-5.61,-5.61,0,*5E